www.pogodaiklimat.ru

Погода и климат >> Архив погоды >> Турция >> Finike


ПОГОДА в Finike

  • Прогноз погоды в Finike
  • Монитор погоды в Finike
  • Климат города

АРХИВ ПОГОДЫ в Finike

Время (UTC), дата Ветер
(напр.,м/с)
 
Видим.   Явления Облачность Т
(С)
Тd
(С)
f
(%)
Тe
(С)
Тes
(С)
Комфортность P
(гПа)
Po
(гПа)
Тmin
(С)
Tmax
(С)
R
(мм)
R24
(мм)
S
(см)
16 13.05 С 1 20 км 1/1 1000 м
[Cu hum]
+24.2 +13.4 51 +26 +27 жарко 1007.3 1007.1
17 13.05 В 1 20 км 1/1 1000 м
[Cu hum]
+23.1 +14.7 59 +27 +27 душно 1007.9 1007.7
18 13.05 Ю 1
{9}
20 км ясно +22.0 +15.4 66 +26 +26 душно 1008.2 1008.0 +26.6
21 13.05 СВ 1 10 км 10/10 600 м
[Sc]
+11.6 +8.8 83 +12 +12 1017.4 998.6
00 14.05 ЮВ 1 10 км {ливн. осадки} 10/10 600 м
[Sc]
+11.6 +8.6 82 +11 +11 1016.5 997.8
03 14.05 З 1 1000 м 5/1 600 м
[Cu hum]
+19.3 +14.9 76 +19 +19 1012.4 1011.2
06 14.05 С 1
{3}
20 км ясно +23.4 +13.6 54 +27 +36 душно 1011.9 1011.7 +17.2
07 14.05 ЮВ 1 20 км 1/1 1000 м
[Cu hum]
+24.0 +15.3 58 +27 +40 жарко 1012.2 1012.0
08 14.05 Ю 2 20 км 3/3 1000 м
[Cu med, cong]
+24.9 +17.2 62 +29 +41 душно 1012.6 1012.4
09 14.05 Ю 2
{4}
20 км 3/3 1050 м
[Cu med, cong]
+24.6 +18.4 68 +29 +42 душно 1013.0 1012.8
10 14.05 Ю 2 20 км 3/3 1000 м
[Cu med, cong]
+24.8 +17.6 64 +29 +43 душно 1013.1 1012.9
11 14.05 Ю 3 20 км 3/3 1000 м
[Cu med, cong]
+25.0 +17.8 64 +29 +41 душно 1013.2 1013.0
12 14.05 Ю 3
{7}
20 км 3/3 1080 м
[Cu med, cong]
+24.9 +18.4 67 +29 +40 душно 1013.0 1012.8
13 14.05 ЮВ 2 20 км 3/3 1000 м
[Cu med, cong]
+24.2 +18.9 72 +29 +37 душно 1013.0 1012.8
14 14.05 ЮВ 2 20 км 3/3 1000 м
[Cu med, cong]
+23.8 +18.7 73 +28 +34 душно 1013.2 1013.0
15 14.05 В 2
{6}
20 км 3/3 1080 м
[Cu med, cong]
+24.0 +17.6 67 +28 +31 душно 1013.2 1013.0
16 14.05 С 1 20 км 3/3 1000 м
[Cu med, cong]
+24.0 +16.1 61 +27 +28 жарко 1013.1 1012.9
17 14.05 С 1 20 км 3/3 1000 м
[Cu med, cong]
+22.9 +16.7 68 +28 +28 душно 1013.4 1013.2
18 14.05 СВ 1
{6}
20 км 1/1 1080 м
[Cu hum]
+22.3 +17.5 74 +27 +27 душно 1013.7 1013.5 +25.7
00 15.05 З 46 70 км 4/4 <50 м
[]
+8.5 +7.9 96 -9 -9 1017.6 998.6
03 15.05 штиль 0 70 км 5/5 <50 м
[]
+7.4 +6.5 94 +6 +6 1017.8 998.7
06 15.05 ЮВ 1
{2}
20 км ясно +22.6 +14.5 60 +26 +35 жарко 1015.7 1015.5 +17.5
07 15.05 ЮВ 1 20 км ясно +23.0 +16.1 65 +27 +42 душно 1015.7 1015.5
08 15.05 ЮВ 2 20 км 1/1 1000 м
[Cu hum]
+23.5 +18.2 72 +28 +42 душно 1015.8 1015.6
09 15.05 Ю 2
{4}
20 км 3/3 1080 м
[Cu med, cong]
+26.0 +19.2 66 +31 +45 очень
душно
1015.5 1015.3
10 15.05 ЮЗ 2 20 км 3/3 1000 м
[Cu med, cong]
+26.8 +19.3 63 +32 +46 очень
душно
1015.4 1015.2
11 15.05 С 2 20 км 3/3 1000 м
[Cu med, cong]
+27.7 +19.0 59 +33 +48 очень
душно
1015.3 1015.1
12 15.05 СВ 1
{6}
20 км 3/3 1080 м
[Cu med, cong]
+28.5 +18.3 54 +33 +47 очень
душно
1014.7 1014.5
13 15.05 Ю 3 20 км 3/3 1000 м
[Cu hum]
+27.2 +15.6 49 +30 +37 душно 1014.5 1014.3
14 15.05 С 2 20 км 1/1 1000 м
[Cu hum]
+25.5 +18.5 65 +30 +37 душно 1014.8 1014.6
15 15.05 СВ 1
{7}
20 км 1/1 1200 м
[Cu hum]
+25.6 +16.8 58 +29 +33 душно 1014.8 1014.6
16 15.05 В 1 20 км ясно +25.0 +16.5 59 +28 +29 жарко 1014.4 1014.2
17 15.05 штиль 0 20 км ясно +23.8 +15.6 60 +27 +27 жарко 1014.3 1014.1
18 15.05 С 1
{7}
20 км ясно +23.4 +16.5 65 +28 +28 душно 1014.4 1014.2 +29.6
21 15.05 ЮВ 1 10 км слабый ливневой дождь 10/10 600 м
[Cb cap]
+13.3 +12.6 96 +14 +14 1015.3 996.7
00 16.05 В 1 10 км в посл. час ливневой дождь 10/10 600 м
[Sc]
+12.9 +12.2 96 +14 +14 1014.2 995.6
06 16.05 В 1
{2}
20 км 3/0
[Ci fib]
+22.8 +15.7 64 +27 +35 душно 1015.2 1015.0 +17.4
07 16.05 ЮВ 1 20 км 3/0
[Ci fib]
+24.1 +16.2 61 +27 +41 жарко 1014.9 1014.7
08 16.05 ЮВ 2 20 км 3/0
[Ci fib]
+26.1 +18.8 64 +31 +48 очень
душно
1015.0 1014.8
09 16.05 Ю 2
{3}
20 км 4/0
[Ci fib]
+28.9 +17.8 51 +33 +53 опасность
солнечного
удара
1014.9 1014.7
10 16.05 Ю 2 20 км 4/1 1000 м
[Cu hum Ci fib]
+29.7 +18.5 51 +35 +53 опасность
солнечного
удара
1014.7 1014.5
11 16.05 ЮВ 1 20 км 1/1 1000 м
[Cu hum]
+30.8 +17.1 44 +35 +55 опасность
солнечного
удара
1014.3 1014.1
12 16.05 СВ 1
{4}
20 км 1/1 1080 м
[Cu hum]
+31.3 +17.2 43 +35 +52 опасность
солнечного
удара
1013.9 1013.7
13 16.05 С 2 20 км 1/1 1000 м
[Cu hum]
+31.1 +18.1 46 +36 +47 очень
душно
1013.6 1013.4
14 16.05 С 2 20 км 1/1 1000 м
[Cu hum]
+29.0 +18.2 52 +34 +41 очень
душно
1013.4 1013.2
15 16.05 С 2
{4}
20 км 1/1 1080 м
[Cu hum]
+28.1 +18.6 56 +33 +36 очень
душно
1013.0 1012.8
16 16.05 ЮВ 1 20 км ясно +25.1 +18.9 68 +30 +31 душно 1013.0 1012.8
17 16.05 штиль 0 20 км ясно +24.7 +18.5 68 +29 +29 душно 1013.2 1013.0
18 16.05 С 1
{4}
20 км ясно +25.1 +17.4 62 +29 +29 душно 1013.1 1012.9 +32.0
03 17.05 0 {ливн. осадки} н/о +9.9 +8.1 89 1010.1
06 17.05 Ю 1
{2}
20 км ясно +25.4 +13.6 48 +28 +36 жарко 1013.8 1013.6 +20.4
07 17.05 ЮВ 1 20 км 5/0
[Ci fib]
+26.5 +13.2 44 +28 +41 жарко 1014.0 1013.8
08 17.05 ЮВ 2 20 км 5/0
[Ci fib]
+27.4 +16.4 51 +31 +47 душно 1014.1 1013.9
09 17.05 ЮВ 2
{3}
20 км 4/0
[Ci fib]
+28.7 +16.3 47 +32 +51 опасность
солнечного
удара
1013.9 1013.7
10 17.05 Ю 2 20 км 5/3 1000 м
[Cu med, cong Ci fib]
+30.7 +15.5 40 +33 +47 душно 1013.7 1013.5
11 17.05 Ю 4 20 км 5/3 1000 м
[Cu med, cong Ci fib]
+29.7 +16.5 45 +33 +43 душно 1013.7 1013.5
12 17.05 Ю 3
{8}
20 км 3/3 1050 м
[Cu med, cong]
+29.5 +15.9 44 +33 +43 душно 1013.7 1013.5
13 17.05 ЮВ 2 20 км 3/3 1000 м
[Cu med, cong]
+30.0 +18.8 51 +35 +44 очень
душно
1013.5 1013.3
14 17.05 В 1 20 км 3/3 1000 м
[Cu med, cong]
+29.1 +14.4 41 +31 +37 жарко 1013.0 1012.8
15 17.05 СЗ 1
{4}
20 км 4/4 1020 м
[Cu med, cong]
+28.2 +15.5 46 +31 +34 душно 1012.7 1012.5
16 17.05 С 2 20 км 4/4 1000 м
[Cu med, cong]
+27.6 +16.3 50 +31 +32 душно 1012.8 1012.6
17 17.05 С 1 20 км 3/3 1000 м
[Cu med, cong]
+26.5 +16.8 55 +30 +30 душно 1012.9 1012.7
18 17.05 штиль 0
{4}
20 км 3/3 1050 м
[Cu med, cong]
+25.6 +15.6 54 +29 +29 душно 1012.9 1012.7 +31.3
03 18.05 ЮЗ 1 10 км 6/3 600 м
[Sc Cc]
+10.1 +8.7 91 +10 +10 1008.1 989.4
06 18.05 С 2
{6}
20 км 3/0
[Ci fib]
+31.8 +12.0 30 +32 +40 жарко 1012.0 1011.8 +20.9
07 18.05 ЮВ 1 20 км 3/0
[Ci fib]
+30.2 +12.0 33 +31 +45 жарко 1011.8 1011.6
08 18.05 Ю 3 20 км 3/0
[Ci fib]
+28.0 +15.6 47 +31 +44 душно 1012.4 1012.2
09 18.05 Ю 2
{6}
20 км 4/1 1080 м
[Cu hum Ci fib]
+28.6 +17.8 52 +33 +51 опасность
солнечного
удара
1013.1 1012.9
10 18.05 В 2 20 км 1/1 1000 м
[Cu hum]
+29.8 +14.3 39 +32 +52 опасность
солнечного
удара
1012.6 1012.4
11 18.05 Ю 3 20 км 1/1 1000 м
[Cu hum]
+32.1 +12.2 30 +33 +48 жарко 1012.1 1011.9
12 18.05 СЗ 2
{6}
20 км 1/1 1080 м
[Cu hum]
+32.6 +17.6 41 +37 +53 опасность
солнечного
удара
1011.9 1011.7
13 18.05 ЮЗ 3 20 км 1/1 1000 м
[Cu hum]
+31.4 +16.5 41 +35 +45 очень
душно
1011.4 1011.2
14 18.05 С 1 20 км ясно +32.5 +16.3 38 +35 +44 душно 1010.9 1010.7
15 18.05 С 2
{6}
20 км ясно +30.7 +16.3 42 +34 +38 очень
душно
1010.6 1010.4
16 18.05 С 1 20 км 5/1 1000 м
[Cu hum Ci fib]
+29.2 +14.1 40 +31 +32 жарко 1010.7 1010.5
17 18.05 ЮВ 1 20 км 4/0
[Ci fib]
+27.2 +16.2 51 +31 +31 душно 1010.8 1010.6
18 18.05 СЗ 1
{6}
20 км 3/0
[Ci fib]
+27.1 +14.1 45 +29 +29 жарко 1010.9 1010.7 +33.9
00 19.05 штиль 0 10 км {ливн. осадки} 10/10 600 м
[Sc]
+14.1 +12.8 92 +14 +14 1009.7 991.3
03 19.05 З 1 10 км в посл. час ливневой дождь 9/9 600 м
[Sc]
+12.8 +11.7 93 +14 +14 1010.5 992.0
06 19.05 СВ 1
{2}
20 км 8/0
[Ac trans Ci]
+25.9 +15.6 53 +29 +36 душно 1010.9 1010.7 +22.0
07 19.05 ЮВ 1 20 км 6/0
[Ac trans Ci]
+26.5 +14.6 48 +29 +40 жарко 1011.0 1010.8
08 19.05 ЮВ 2 20 км 6/0
[Ac trans]
+28.3 +14.8 44 +31 +42 душно 1011.1 1010.9
09 19.05 ЮВ 1
{2}
20 км 6/0
[Ac trans]
+28.7 +18.8 55 +34 +48 очень
душно
1011.0 1010.8
10 19.05 СВ 1 20 км 6/0
[Ac trans]
+30.8 +19.2 50 +36 +52 опасность
солнечного
удара
1010.6 1010.4
11 19.05 С 2 20 км 8/1 1000 м
[Cu med, cong Ac und]
+30.2 +16.9 45 +34 +42 очень
душно
1010.6 1010.4
12 19.05 С 2
{4}
20 км 6/3 1080 м
[Cu med, cong Ac lent]
+30.3 +17.4 46 +34 +42 очень
душно
1010.4 1010.2
13 19.05 ЮВ 1 20 км 4/1 1000 м
[Cu hum Ac trans]
+29.2 +19.3 55 +35 +45 очень
душно
1010.1 1009.9
14 19.05 В 2 20 км 4/1 1000 м
[Cu hum Ac trans]
+29.0 +17.6 50 +33 +39 очень
душно
1009.8 1009.6
15 19.05 В 1
{3}
20 км 1/1 1200 м
[Cu hum]
+28.1 +18.0 54 +33 +36 очень
душно
1009.9 1009.7
16 19.05 С 1 20 км 1/1 1000 м
[Cu hum]
+27.6 +19.2 60 +33 +34 очень
душно
1009.7 1009.5
17 19.05 С 1 20 км 1/1 1000 м
[Cu hum]
+26.5 +20.4 69 +33 +33 очень
душно
1009.9 1009.7
18 19.05 С 1
{3}
20 км ясно +25.3 +19.3 69 +30 +30 душно 1010.1 1009.9 +31.2
21 19.05 С 1 10 км 10/10 600 м
[Sc]
+13.6 +12.3 92 +14 +14 1017.4 998.8
00 20.05 С 1 10 км слабый ливневой дождь 10/10 600 м
[Cb cap]
+13.8 +12.7 93 +15 +15 1018.2 999.6
03 20.05 С 1 10 км 8/8 600 м
[Sc]
+11.4 +8.1 80 +11 +11 1019.4 1000.6 360
06 20.05 В 2 20 км 5/0
[Ac trans]
+28.0 +19.3 59 +34 +39 очень
душно
1010.2 1010.0 +22.7
07 20.05 Ю 1 20 км ясно +28.1 +16.1 48 +31 +46 душно 1010.4 1010.2
08 20.05 Ю 1 20 км ясно +28.5 +17.4 51 +33 +52 опасность
солнечного
удара
1010.1 1009.9
09 20.05 ЮВ 2
{4}
20 км ясно +28.7 +20.0 59 +35 +56 опасность
солнечного
удара
1010.0 1009.8
10 20.05 ЮВ 2 20 км 5/3 1000 м
[Cu med, cong Ci fib]
+27.8 +20.7 65 +35 +49 очень
душно
1009.8 1009.6
11 20.05 В 2 20 км 6/3 1000 м
[Cu med, cong Ci]
+25.8 +21.7 78 +33 +47 очень
душно
1009.5 1009.3
12 20.05 ЮВ 2
{4}
20 км 6/3 1080 м
[Cu med, cong Ci fib]
+27.5 +21.6 70 +35 +47 очень
душно
1008.8 1008.6
13 20.05 ЮВ 1 20 км 6/1 1000 м
[Cu hum Ci fib]
+26.9 +20.8 69 +34 +45 очень
душно
1008.3 1008.1
14 20.05 В 1 20 км 5/0
[Ci fib]
+28.0 +19.0 58 +33 +41 очень
душно
1007.6 1007.4

 

Местоположение метеостанции Finike (Турция): широта 36.30 долгота 30.15 высота над уровнем моря 2 м.

В архиве по умолчанию представлена погода в Finike за последнюю неделю. Архивные данные за месяц целиком и за предыдущие месяцы, начиная с января 2011 года, Вы можете получить, выбрав интересующий диапазон дат из раскрывающегося списка и нажав кнопку "Ввод!".


*Определитесь, кто Вы:
робот инопланетянин человек

Внимание! Время в таблицах - всемирное. Для получения местного времени необходимо прибавить поправку, которая в Finike равна 2 ч.

Смотрите также архив погоды в соседних городах и на ближайших метеорологических станциях:

Погода в Kas (Турция) (46 км)
Погода в Antalya (Турция) (82 км)
Погода в Fethiye (Турция) (99 км)
Погода в Antalya Bolge (Турция) (122 км)
Погода в Dalaman (Турция) (130 км)
Погода в Burdur (Турция) (153 км)
Погода в Isparta (Турция) (165 км)
Погода в Alanya (Турция) (168 км)
Погода в Suleyman Demirel (Турция) (174 км)
Погода в Marmaris (Турция) (179 км)

Пояснения к столбцам:

Ветер - указаны скорость ветра в м/с - средняя за 10 мин, порывы в срок и между сроками (в фигурных скобках) и направление, откуда дует ветер: С - северный, СВ - северо-восточный, В - восточный, ЮВ - юго-восточный, Ю - южный, ЮЗ - юго-западный, З - западный, СЗ - северо-западный.
Видимость - горизонтальная дальность видимости в метрах или километрах. При видимости от 1 до 10 км при отсутствии осадков обычно наблюдается дымка, при ухудшении видимости до 1 км и менее - туман. В сухую погоду видимость может ухудшаться дымом, пылью или мглою.
Явления - указаны атмосферные явления, наблюдавшиеся в срок или в последний час перед сроком; фигурными скобками обозначены явления, наблюдавшиеся между сроками (за 1-3 часа до срока); квадратными скобками обозначены град или гололедные отложения с указанием их диаметра в мм.
Облачность - указаны через наклонную черту общая и нижняя облачность в баллах и высота нижней границы облаков в метрах; квадратными скобками обозначены формы облаков: Ci - перистые, Cs - перисто-слоистые, Cc - перисто-кучевые, Ac - высококучевые, As - высокослоистые, Sc - слоисто-кучевые, Ns - слоисто-дождевые, Cu - кучевые, Cb - кучево-дождевые. Подробнее классификацию облаков см. в Атласе облаков (PDF).
T - Температура воздуха - температура, измеренная на высоте 2 м над землей.
Td - Температура точки росы - температура, при понижении до которой содержащийся в воздухе водяной пар достигнет насыщения.
f - Относительная влажность воздуха - влажноcть воздуха, измеренная на высоте 2 м над землей.
Te - Эффективная температура - температура, которую ощущает одетый по сезону человек в тени. Характеристика душности погоды. При расчете учитывается влияние влажности воздуха и скорости ветра на теплоощущения человека.
Tes - Эффективная температура на солнце - температура, которую ощущает человек, с поправкой на солнечный нагрев. Характеристика знойности погоды. Зависит от высоты солнца над горизонтом, облачности и скорости ветра. Ночью, в пасмурную погоду, а также при ветре 12 м/с и более поправка равна нулю.
P - Атмосферное давление - приведенное к уровню моря атмосферное давление.
Po - Атмосферное давление - измеренное на уровне метеостанции атмосферное давление.
Tmin - Минимальная температура - минимум температуры воздуха на высоте 2 м над землей.
Tmax - Максимальная температура - максимум температуры воздуха на высоте 2 м над землей.
R - Количество осадков - Количество выпавших осадков за период времени, мм. При наведении курсора мыши на число - период времени, за который выпало указанное количество осадков.
R24 - Количество осадков - Количество выпавших осадков за 24 часа, мм.
S - Снежный покров - Высота снежного покрова, см. При наведении курсора мыши на число - состояние снежного покрова и степень покрытия местности в баллах.